Regional Weather Roundup
Issued by NWS

Home | Current Version | Previous Version | Text Only | Print | Product List | Glossary Off
Versions: 1 2 3 4 5 6 7 8 9 10 11 12 13 14 15 16 17 18 19 20 21 22 23 24 25 26 27 28 29 30 31 32 33 34 35 36 37 38 39 40 41 42 43 44 45 46 47 48 49 50

000
ASUS43 KDMX 271808
RWRIA

WEATHER ROUNDUP FOR IOWA
NATIONAL WEATHER SERVICE DES MOINES IA
100 PM CDT WED JUL 27 2016

NOTE: "FAIR" INDICATES FEW OR NO CLOUDS BELOW 12,000 FEET WITH NO
SIGNIFICANT WEATHER AND/OR OBSTRUCTIONS TO VISIBILITY.

* - THESE STATIONS ARE NOT NWS STATIONS...THUS NOT UNDER NWS
QUALITY CONTROL.  THEY ALSO DO NOT REPORT WEATHER SUCH
AS PRECIPITATION OR FOG.

IAZ001>003-012>014-020>022-031>034-043>046-271900-
   NORTHWEST IOWA

CITY           SKY/WX    TMP DP  RH WIND       PRES   REMARKS
CARROLL *      CLOUDY    72  70  94 S8        30.00F
CHEROKEE *     MOSUNNY   82  72  72 SW9       30.00S HX  87
DENISON *      CLOUDY    70  68  94 S10       29.99F
LE MARS *      SUNNY     84  68  58 VRB7      30.00F HX  87
SHELDON *      MOSUNNY   82  72  69 W10G16    29.99F HX  87
SIOUX CITY     SUNNY     86  68  54 NE5       29.99F HX  89
6HR MIN TEMP:  71; 6HR MAX TEMP:  86; 6HR PCP: TRACE;

SPENCER        SUNNY     83  68  60 W14       29.99S HX  86
6HR MIN TEMP:  67; 6HR MAX TEMP:  83; 6HR PCP: TRACE;

STORM LAKE *   CLOUDY    79  72  78 SW8       30.02F HX  82
$$

IAZ055>058-069>071-079>083-090>094-271900-
   SOUTHWEST IOWA

CITY           SKY/WX    TMP DP  RH WIND       PRES   REMARKS
ATLANTIC *     CLOUDY    79  72  78 S8        29.99F HX  82
CLARINDA *       N/A     82  73  74 MISG      30.01F HX  88
COUNCIL BLFS * SUNNY     84  68  58 SW8G15    29.99S HX  87
CRESTON *      PTSUNNY   81  70  69 S6        30.03F HX  84
HARLAN  *      LGT RAIN  70  66  88 N23G38    30.04R
LAMONI         CLOUDY    82  68  62 CALM      30.01F HX  85
6HR MIN TEMP:  68; 6HR MAX TEMP:  82;

RED OAK *      PTSUNNY   82  73  74 SW12      29.99F HX  88
SHENANDOAH *   PTSUNNY   82  75  78 S9        29.99F HX  89
$$

IAZ047>049-059>061-072>074-084-271900-
   CENTRAL IOWA

CITY           SKY/WX    TMP DP  RH WIND       PRES   REMARKS
AMES           MOSUNNY   80  70  71 SW7       30.01F HX  83
6HR MIN TEMP:  63; 6HR MAX TEMP:  80;

ANKENY *         N/A    N/A N/A N/A MISG        N/A
BOONE *        MOSUNNY   79  68  69 VRB5      30.00F HX  81
CHARITON *       N/A    N/A N/A N/A MISG        N/A
DES MOINES     CLOUDY    81  70  69 S3        30.00F HX  84
6HR MIN TEMP:  70; 6HR MAX TEMP:  83;

GRINNELL*      CLOUDY    80  64  58 SE3       30.02S HX  82
KNOXVILLE *    MOSUNNY   82  66  57 S5        29.99F HX  85
MARSHALLTOWN   CLOUDY    79  68  69 S5        30.01R HX  81
6HR MIN TEMP:  62; 6HR MAX TEMP:  82;

NEWTON *       CLOUDY    79  70  73 CALM      30.01S HX  81
PELLA *        PTSUNNY   83  65  54 S3        30.01S HX  84
PERRY *          N/A     78  72  82 CALM      30.01F HX  80
$$

IAZ004>006-015-016-023>025-035-036-271900-
   NORTH CENTRAL IOWA

CITY           SKY/WX    TMP DP  RH WIND       PRES   REMARKS
ALGONA *       CLOUDY    79  68  69 S13       30.02S HX  81
ESTHERVILLE    CLOUDY    80  71  74 SW9       29.99S HX  84
6HR MIN TEMP:  65; 6HR MAX TEMP:  80; 6HR PCP:  0.01;

FORT DODGE *   CLOUDY    77  68  73 S10       30.01F
MASON CITY     CLOUDY    78  69  73 SW13      30.04R HX  80
6HR MIN TEMP:  65; 6HR MAX TEMP:  78;

FOREST CITY *    N/A     77  66  69 S8        30.02S
IOWA FALLS *     N/A     78  68  70 S6        30.03S HX  80
$$

IAZ007>011-017>019-026>030-037>042-050>054-066-271900-
   NORTHEAST IOWA

CITY           SKY/WX    TMP DP  RH WIND       PRES   REMARKS
CEDAR RAPIDS   MOSUNNY   83  70  64 SE8       30.00F HX  87
6HR MIN TEMP:  66; 6HR MAX TEMP:  83;

CHARLES CITY * CLOUDY    77  70  78 S9        30.01F
CLINTON *      PTSUNNY   84  69  60 SE8       30.00F HX  88
DECORAH *      CLOUDY    79  68  69 S6        30.01R HX  81
DUBUQUE        MOSUNNY   81  64  56 S6        30.02F HX  82
6HR MIN TEMP:  66; 6HR MAX TEMP:  82;

MONTICELLO *   MOSUNNY   82  66  57 S5G12     30.01S HX  85
OELWEIN *      MOSUNNY   79  68  69 S8        30.02S HX  81
WATERLOO       CLOUDY    80  65  59 S9        29.99F HX  82
6HR MIN TEMP:  68; 6HR MAX TEMP:  83;

$$

IAZ064-065-067-068-078-271900-
   EAST CENTRAL IOWA

CITY           SKY/WX    TMP DP  RH WIND       PRES   REMARKS
DAVENPORT      MOSUNNY   84  68  58 MISG      30.00F HX  87
6HR MIN TEMP:  66; 6HR MAX TEMP:  84;

IOWA CITY      MOSUNNY   84  67  56 S7        30.00F HX  86
6HR MIN TEMP:  68; 6HR MAX TEMP:  84;

MT. PLEASANT * MOSUNNY   87  71  58 SE5       30.00S HX  93
MUSCATINE *    MOSUNNY   86  68  54 SE10      29.99F HX  89
QUAD CITIES    CLOUDY    85  68  56 SE7       29.99F HX  88
6HR MIN TEMP:  68; 6HR MAX TEMP:  86;

$$

IAZ062-063-075>077-085>089-095>099-271900-
   SOUTHEAST IOWA

CITY           SKY/WX    TMP DP  RH WIND       PRES   REMARKS
BURLINGTON     SUNNY     84  70  62 SE8       29.99F HX  88
6HR MIN TEMP:  71; 6HR MAX TEMP:  85;

FAIRFIELD *    PTSUNNY   82  68  61 CALM      30.00S HX  85
KEOKUK *       MOSUNNY   84  72  65 E3        29.98F HX  89
OSKALOOSA *      N/A     82  66  59 CALM      30.01S HX  84
CENTERVILLE *    N/A     82  66  57 CALM      30.02F HX  85
OTTUMWA        MOSUNNY   82  65  56 CALM      29.99F HX  84
6HR MIN TEMP:  66; 6HR MAX TEMP:  84;

WASHINGTON *   MOSUNNY   82  70  65 S5G12     30.00F HX  86
$$

ABBREVIATIONS USED IN REMARKS
   TC - TEMPERATURES IN CELSIUS
  WCI - WIND CHILL INDEX
   HX - HEAT INDEX
  VSB - VISIBILITY
$$





USA.gov is the U.S. government's official web portal to all federal, state and local government web resources and services.